User: anonymous   Login
Location: Brno
(49.2000°N, 16.6330°E)
Time: 11:30:06
(UTC+02:00)
Language:

Iridium 2 - Orbit

View from above orbital plane
View from above orbital plane
View from above satellite
View from above satellite

Ground track
Ground track

The orbit data is extracted from the following two-line orbital elements,

1 25527U 98066A   18115.80125643 +.00001105 +00000-0 +53428-4 0  9998
2 25527 085.5341 207.5988 0010002 034.9594 325.2301 15.17339123065265
Epoch (UTC): 25 April 2018 19:13:48
Eccentricity: 0.0010002
inclination: 85.5341°
perigee height: 507 km
apogee height: 521 km
right ascension of ascending node: 207.5988°
argument of perigee: 34.9594°
revolutions per day: 15.17339123
mean anomaly at epoch: 325.2301°
orbit number at epoch: 6526

The dashed part of the orbit path shows where the satellite is in the earth's shadow,  

DLR